Home > Weather > Abbotsford > Past weeks

Flag for Canada Weather for the Past 2 Weeks in Abbotsford, British Columbia, Canada

Now
46 °F

Scattered clouds.


Feels Like: 45 °F
Forecast: 40 / 60 °F
Wind: 3 mph from North

Location: Abbotsford

Current Time: Feb 9, 2016 at 10:16:47 AM

Latest Report: Feb 9, 2016 at 9:00 AM


Visibility: 30 mi

Pressure: 30.21 "Hg

Humidity: 82%

Dew point: 41 °F

Location of AbbotsfordLocation

Historic Weather in Abbotsford — Graph

°F

Abbotsford Temperature Yesterday

Maximum temperature yesterday: 57 °F (at 3:00 PM)
Minimum temperature yesterday: 39 °F (at 8:00 AM)
Average temperature yesterday: 47 °F

High & Low Weather Summary for the Past Weeks

 TemperatureHumidityPressure
High57 °F (Jan 28, 12:00 AM)100% (Jan 26, 7:00 AM)30.62 "Hg (Jan 26, 7:00 AM)
Low36 °F (Jan 30, 8:00 AM)41% (Feb 5, 4:00 PM)29.61 "Hg (Jan 29, 12:00 PM)
Average43 °F87%30.15 "Hg
* Reported Jan 25 9:00 AM — Feb 9 9:00 AM, Abbotsford, Weather by CustomWeather, © 2016

Note: Actual official high and low records may vary slightly from our data, if they occured in-between our weather recording intervals... More about our weather records

Advertising

Abbotsford Weather History for the Previous 24 Hours

 ConditionsComfort  
Time TempWeatherWind HumidityBarometerVisibility
9:00 AM
Tue, Feb 9
46 °FScattered clouds.3 mph82%30.21 "Hg30 mi
8:00 AM37 °FPartly sunny.3 mph100%30.19 "Hg30 mi
7:00 AM45 °FPassing clouds.2 mph76%30.19 "Hg30 mi
6:00 AM45 °FClear.3 mph76%30.21 "Hg15 mi
5:00 AM41 °FClear.7 mph93%30.22 "Hg15 mi
4:00 AM43 °FClear.3 mph87%30.23 "Hg15 mi
3:00 AM45 °FClear.No wind87%30.25 "Hg15 mi
2:00 AM46 °FClear.8 mph82%30.26 "Hg15 mi
1:00 AM45 °FClear.5 mph87%30.29 "Hg15 mi
12:00 AM46 °FClear.2 mph82%30.31 "Hg15 mi
11:00 PM
Mon, Feb 8
46 °FClear.6 mph87%30.32 "Hg15 mi
10:00 PM46 °FClear.6 mph87%30.34 "Hg15 mi
9:00 PM46 °FClear.7 mph87%30.35 "Hg15 mi
8:00 PM48 °FClear.7 mph82%30.36 "Hg15 mi
7:00 PM48 °FClear.5 mph82%30.37 "Hg10 mi
6:00 PM52 °FPassing clouds.7 mph77%30.38 "Hg30 mi
5:00 PM54 °FPartly sunny.5 mph77%30.39 "Hg30 mi
4:00 PM57 °FScattered clouds.5 mph67%30.39 "Hg30 mi
3:00 PM57 °FScattered clouds.7 mph67%30.41 "Hg10 mi
2:00 PM55 °FScattered clouds.7 mph72%30.42 "Hg30 mi
1:00 PM54 °FScattered clouds.6 mph77%30.44 "Hg30 mi
12:00 PM52 °FBroken clouds.10 mph72%30.47 "Hg30 mi
11:00 AM50 °FBroken clouds.7 mph76%30.49 "Hg30 mi
10:00 AM48 °FBroken clouds.5 mph82%30.50 "Hg30 mi
Weather by CustomWeather, © 2016

See weather overviewHow to use our weather pages